Time,TemperatureF,DewpointF,PressureIn,WindDirection,WindDirectionDegrees,WindSpeedMPH,WindSpeedGustMPH,Humidity,HourlyPrecipIn,Conditions,Clouds,dailyrainin,SoftwareType,DateUTC
2013-07-28 00:00:00,68.8,67.0,29.89,NE,56,0.0,2.0,94,0.00,,,0.00,Wunderground v.1.15,2013-07-28 04:00:00,
2013-07-28 00:05:00,68.9,67.1,29.89,NE,42,1.0,2.0,94,0.00,,,0.00,Wunderground v.1.15,2013-07-28 04:05:00,
2013-07-28 00:10:00,68.9,67.1,29.89,NE,42,1.0,1.0,94,0.00,,,0.00,Wunderground v.1.15,2013-07-28 04:10:00,
2013-07-28 00:20:00,69.0,67.2,29.89,NE,50,1.0,3.0,94,0.00,,,0.00,Wunderground v.1.15,2013-07-28 04:20:00,
2013-07-28 00:30:00,69.0,67.2,29.88,ENE,63,2.0,2.0,94,0.00,,,0.00,Wunderground v.1.15,2013-07-28 04:30:00,
2013-07-28 00:35:00,69.0,67.2,29.88,ENE,64,2.0,2.0,94,0.00,,,0.00,Wunderground v.1.15,2013-07-28 04:35:00,
2013-07-28 00:40:00,69.0,67.2,29.88,ENE,66,1.0,1.0,94,0.00,,,0.00,Wunderground v.1.15,2013-07-28 04:40:00,
2013-07-28 00:50:00,68.9,67.1,29.88,East,94,1.0,1.0,94,0.00,,,0.00,Wunderground v.1.15,2013-07-28 04:50:00,
2013-07-28 01:00:00,69.0,67.2,29.88,NNE,28,2.0,2.0,94,0.00,,,0.00,Wunderground v.1.15,2013-07-28 05:00:00,
2013-07-28 01:10:00,69.2,67.4,29.88,NNE,28,1.0,1.0,94,0.00,,,0.00,Wunderground v.1.15,2013-07-28 05:10:00,
2013-07-28 01:15:00,69.2,67.4,29.88,NNE,29,1.0,1.0,94,0.00,,,0.00,Wunderground v.1.15,2013-07-28 05:15:00,
2013-07-28 01:20:00,69.2,67.4,29.88,NNE,29,1.0,1.0,94,0.00,,,0.00,Wunderground v.1.15,2013-07-28 05:20:00,
2013-07-28 01:30:00,69.2,67.4,29.88,NNE,33,1.0,1.0,94,0.00,,,0.00,Wunderground v.1.15,2013-07-28 05:30:00,
2013-07-28 01:40:00,69.2,67.4,29.87,NNE,33,1.0,1.0,94,0.00,,,0.00,Wunderground v.1.15,2013-07-28 05:40:00,
2013-07-28 01:50:00,69.0,67.2,29.87,North,9,1.0,2.0,94,0.00,,,0.00,Wunderground v.1.15,2013-07-28 05:50:00,
2013-07-28 02:00:00,68.9,67.1,29.86,North,10,2.0,2.0,94,0.00,,,0.00,Wunderground v.1.15,2013-07-28 06:00:00,
2013-07-28 02:10:00,69.1,67.3,29.87,NNE,21,1.0,2.0,94,0.00,,,0.00,Wunderground v.1.15,2013-07-28 06:10:00,
2013-07-28 02:20:00,69.4,67.9,29.87,NNW,343,2.0,6.0,95,0.00,,,0.00,Wunderground v.1.15,2013-07-28 06:20:00,
2013-07-28 02:30:00,69.7,68.2,29.86,NNE,23,2.0,2.0,95,0.00,,,0.00,Wunderground v.1.15,2013-07-28 06:30:00,
2013-07-28 02:40:00,69.7,68.2,29.86,NW,316,2.0,2.0,95,0.00,,,0.00,Wunderground v.1.15,2013-07-28 06:40:00,
2013-07-28 02:50:00,69.6,68.1,29.87,North,8,1.0,1.0,95,0.00,,,0.00,Wunderground v.1.15,2013-07-28 06:50:00,
2013-07-28 03:00:00,69.3,67.5,29.87,NNW,345,2.0,4.0,94,0.00,,,0.00,Wunderground v.1.15,2013-07-28 07:00:00,
2013-07-28 03:10:00,69.2,67.7,29.87,NNW,343,2.0,2.0,95,0.00,,,0.00,Wunderground v.1.15,2013-07-28 07:10:00,
2013-07-28 03:20:00,69.2,67.7,29.87,North,360,3.0,3.0,95,0.00,,,0.00,Wunderground v.1.15,2013-07-28 07:20:00,
2013-07-28 03:30:00,69.1,67.6,29.87,NNW,335,1.0,2.0,95,0.00,,,0.00,Wunderground v.1.15,2013-07-28 07:30:00,
2013-07-28 03:40:00,69.0,67.5,29.87,North,356,2.0,2.0,95,0.00,,,0.00,Wunderground v.1.15,2013-07-28 07:40:00,
2013-07-28 03:50:00,69.0,67.5,29.88,NNE,14,2.0,3.0,95,0.00,,,0.00,Wunderground v.1.15,2013-07-28 07:50:00,
2013-07-28 04:00:00,68.8,67.3,29.87,North,349,1.0,2.0,95,0.00,,,0.00,Wunderground v.1.15,2013-07-28 08:00:00,
2013-07-28 04:10:00,68.9,67.4,29.86,NNE,19,2.0,2.0,95,0.00,,,0.00,Wunderground v.1.15,2013-07-28 08:10:00,
2013-07-28 04:20:00,69.0,67.5,29.86,North,353,2.0,3.0,95,0.00,,,0.00,Wunderground v.1.15,2013-07-28 08:20:00,
2013-07-28 04:30:00,68.8,67.3,29.86,North,3,3.0,3.0,95,0.00,,,0.00,Wunderground v.1.15,2013-07-28 08:30:00,
2013-07-28 04:40:00,68.8,67.3,29.86,NNW,343,3.0,3.0,95,0.00,,,0.00,Wunderground v.1.15,2013-07-28 08:40:00,
2013-07-28 04:50:00,68.7,67.2,29.86,NNE,23,3.0,3.0,95,0.00,,,0.00,Wunderground v.1.15,2013-07-28 08:50:00,
2013-07-28 05:00:00,68.7,67.2,29.86,North,7,2.0,2.0,95,0.00,,,0.00,Wunderground v.1.15,2013-07-28 09:00:00,
2013-07-28 05:10:00,68.6,67.1,29.86,NW,324,1.0,1.0,95,0.00,,,0.00,Wunderground v.1.15,2013-07-28 09:10:00,
2013-07-28 05:20:00,68.5,67.0,29.86,NW,322,1.0,1.0,95,0.00,,,0.00,Wunderground v.1.15,2013-07-28 09:20:00,
2013-07-28 05:30:00,68.4,66.9,29.87,NNW,343,1.0,1.0,95,0.00,,,0.00,Wunderground v.1.15,2013-07-28 09:30:00,
2013-07-28 05:40:00,68.3,66.8,29.87,NNW,341,1.0,1.0,95,0.00,,,0.00,Wunderground v.1.15,2013-07-28 09:40:00,
2013-07-28 05:50:00,68.1,66.6,29.87,NNW,341,0.0,2.0,95,0.00,,,0.00,Wunderground v.1.15,2013-07-28 09:50:00,
2013-07-28 06:00:00,67.9,66.4,29.88,East,100,1.0,1.0,95,0.00,,,0.00,Wunderground v.1.15,2013-07-28 10:00:00,
2013-07-28 06:10:00,67.8,66.3,29.88,ESE,102,1.0,1.0,95,0.00,,,0.00,Wunderground v.1.15,2013-07-28 10:10:00,
2013-07-28 06:20:00,67.6,66.1,29.88,ESE,116,1.0,1.0,95,0.00,,,0.00,Wunderground v.1.15,2013-07-28 10:20:00,
2013-07-28 06:30:00,67.6,66.1,29.89,SE,139,1.0,1.0,95,0.00,,,0.00,Wunderground v.1.15,2013-07-28 10:30:00,
2013-07-28 06:40:00,67.4,65.9,29.89,SE,143,1.0,1.0,95,0.00,,,0.00,Wunderground v.1.15,2013-07-28 10:40:00,
2013-07-28 06:50:00,67.3,65.8,29.89,SSE,147,1.0,1.0,95,0.00,,,0.00,Wunderground v.1.15,2013-07-28 10:50:00,
2013-07-28 07:00:00,67.4,65.9,29.89,SSE,162,2.0,2.0,95,0.00,,,0.00,Wunderground v.1.15,2013-07-28 11:00:00,
2013-07-28 07:10:00,67.8,66.6,29.89,SSE,155,2.0,3.0,96,0.00,,,0.00,Wunderground v.1.15,2013-07-28 11:10:00,
2013-07-28 07:20:00,68.6,67.4,29.89,SE,140,1.0,1.0,96,0.00,,,0.00,Wunderground v.1.15,2013-07-28 11:20:00,
2013-07-28 07:30:00,69.0,67.8,29.90,SE,129,1.0,2.0,96,0.00,,,0.00,Wunderground v.1.15,2013-07-28 11:30:00,
2013-07-28 07:40:00,69.2,68.0,29.90,SE,127,1.0,1.0,96,0.00,,,0.00,Wunderground v.1.15,2013-07-28 11:40:00,
2013-07-28 07:50:00,69.5,68.3,29.90,SSE,152,1.0,1.0,96,0.00,,,0.00,Wunderground v.1.15,2013-07-28 11:50:00,
2013-07-28 08:00:00,70.3,69.1,29.91,SSE,158,1.0,1.0,96,0.00,,,0.00,Wunderground v.1.15,2013-07-28 12:00:00,
2013-07-28 08:10:00,71.1,69.9,29.91,SSE,154,1.0,1.0,96,0.00,,,0.00,Wunderground v.1.15,2013-07-28 12:10:00,
2013-07-28 08:20:00,72.0,70.5,29.91,South,175,1.0,1.0,95,0.00,,,0.00,Wunderground v.1.15,2013-07-28 12:20:00,
2013-07-28 08:35:00,72.5,70.4,29.91,ENE,58,1.0,1.0,93,0.00,,,0.00,Wunderground v.1.15,2013-07-28 12:35:00,
2013-07-28 08:40:00,72.4,69.6,29.91,NNE,27,1.0,1.0,91,0.00,,,0.00,Wunderground v.1.15,2013-07-28 12:40:00,
2013-07-28 08:50:00,71.7,68.6,29.91,NNE,25,2.0,2.0,90,0.00,,,0.00,Wunderground v.1.15,2013-07-28 12:50:00,
2013-07-28 09:00:00,71.3,68.5,29.91,NE,38,2.0,2.0,91,0.00,,,0.00,Wunderground v.1.15,2013-07-28 13:00:00,
2013-07-28 09:10:00,70.9,68.5,29.90,North,351,1.0,2.0,92,0.00,,,0.00,Wunderground v.1.15,2013-07-28 13:10:00,
2013-07-28 09:20:00,71.4,69.0,29.90,NNW,341,2.0,3.0,92,0.00,,,0.00,Wunderground v.1.15,2013-07-28 13:20:00,
2013-07-28 09:30:00,71.6,68.8,29.90,NNE,14,2.0,2.0,91,0.00,,,0.00,Wunderground v.1.15,2013-07-28 13:30:00,
2013-07-28 09:40:00,71.6,68.8,29.90,NNE,14,2.0,2.0,91,0.00,,,0.00,Wunderground v.1.15,2013-07-28 13:40:00,
2013-07-28 09:50:00,71.9,68.8,29.91,NE,35,2.0,2.0,90,0.00,,,0.00,Wunderground v.1.15,2013-07-28 13:50:00,
2013-07-28 10:00:00,71.4,68.3,29.90,NW,323,2.0,2.0,90,0.00,,,0.00,Wunderground v.1.15,2013-07-28 14:00:00,
2013-07-28 10:10:00,71.8,69.0,29.90,NW,309,2.0,2.0,91,0.00,,,0.00,Wunderground v.1.15,2013-07-28 14:10:00,
2013-07-28 10:20:00,71.5,68.7,29.90,NNE,33,2.0,2.0,91,0.00,,,0.00,Wunderground v.1.15,2013-07-28 14:20:00,
2013-07-28 10:30:00,71.5,68.7,29.90,North,1,3.0,4.0,91,0.00,,,0.00,Wunderground v.1.15,2013-07-28 14:30:00,
2013-07-28 10:40:00,71.8,69.0,29.90,North,6,3.0,4.0,91,0.00,,,0.00,Wunderground v.1.15,2013-07-28 14:40:00,
2013-07-28 10:50:00,72.4,69.6,29.90,NNE,33,2.0,2.0,91,0.00,,,0.00,Wunderground v.1.15,2013-07-28 14:50:00,
2013-07-28 11:00:00,72.3,68.9,29.89,NE,36,3.0,3.0,89,0.00,,,0.00,Wunderground v.1.15,2013-07-28 15:00:00,
2013-07-28 11:10:00,72.3,68.9,29.89,NW,318,4.0,4.0,89,0.00,,,0.00,Wunderground v.1.15,2013-07-28 15:10:00,
2013-07-28 11:20:00,72.7,68.9,29.89,NNE,18,3.0,5.0,88,0.00,,,0.00,Wunderground v.1.15,2013-07-28 15:20:00,
2013-07-28 11:30:00,72.7,68.6,29.89,NNE,14,3.0,3.0,87,0.00,,,0.00,Wunderground v.1.15,2013-07-28 15:30:00,
2013-07-28 11:40:00,72.8,68.7,29.89,North,353,3.0,5.0,87,0.00,,,0.00,Wunderground v.1.15,2013-07-28 15:40:00,
2013-07-28 11:50:00,72.8,68.7,29.89,NNE,16,4.0,4.0,87,0.00,,,0.00,Wunderground v.1.15,2013-07-28 15:50:00,
2013-07-28 12:00:00,73.4,69.3,29.89,NNW,344,3.0,4.0,87,0.00,,,0.00,Wunderground v.1.15,2013-07-28 16:00:00,
2013-07-28 12:10:00,74.1,69.3,29.89,NNE,19,2.0,3.0,85,0.00,,,0.00,Wunderground v.1.15,2013-07-28 16:10:00,
2013-07-28 12:20:00,74.1,68.6,29.89,NW,314,3.0,4.0,83,0.00,,,0.00,Wunderground v.1.15,2013-07-28 16:20:00,
2013-07-28 12:30:00,74.5,69.3,29.90,NE,42,4.0,4.0,84,0.00,,,0.00,Wunderground v.1.15,2013-07-28 16:30:00,
2013-07-28 12:40:00,75.5,69.6,29.90,NNE,18,3.0,5.0,82,0.00,,,0.00,Wunderground v.1.15,2013-07-28 16:40:00,
2013-07-28 12:50:00,75.9,70.0,29.90,North,4,4.0,5.0,82,0.00,,,0.00,Wunderground v.1.15,2013-07-28 16:50:00,
2013-07-28 13:00:00,76.2,69.6,29.89,North,353,3.0,4.0,80,0.00,,,0.00,Wunderground v.1.15,2013-07-28 17:00:00,
2013-07-28 13:10:00,76.2,69.2,29.90,NNW,345,3.0,3.0,79,0.00,,,0.00,Wunderground v.1.15,2013-07-28 17:10:00,
2013-07-28 13:20:00,76.0,69.7,29.90,NNW,340,3.0,3.0,81,0.00,,,0.00,Wunderground v.1.15,2013-07-28 17:20:00,
2013-07-28 13:30:00,75.8,69.6,29.90,NE,48,3.0,3.0,81,0.00,,,0.00,Wunderground v.1.15,2013-07-28 17:30:00,
2013-07-28 13:40:00,75.8,69.9,29.90,NE,54,2.0,2.0,82,0.00,,,0.00,Wunderground v.1.15,2013-07-28 17:40:00,
2013-07-28 13:50:00,76.0,69.7,29.90,SE,137,2.0,2.0,81,0.00,,,0.00,Wunderground v.1.15,2013-07-28 17:50:00,
2013-07-28 14:00:00,76.2,68.8,29.90,NE,47,2.0,2.0,78,0.00,,,0.00,Wunderground v.1.15,2013-07-28 18:00:00,
2013-07-28 14:10:00,76.0,69.4,29.90,NNE,32,2.0,2.0,80,0.00,,,0.00,Wunderground v.1.15,2013-07-28 18:10:00,
2013-07-28 14:20:00,75.9,69.6,29.90,SSW,201,1.0,2.0,81,0.00,,,0.00,Wunderground v.1.15,2013-07-28 18:20:00,
2013-07-28 14:30:00,76.2,68.8,29.89,SE,139,3.0,3.0,78,0.00,,,0.00,Wunderground v.1.15,2013-07-28 18:30:00,
2013-07-28 14:40:00,76.5,67.6,29.88,SSW,199,4.0,6.0,74,0.00,,,0.00,Wunderground v.1.15,2013-07-28 18:40:00,
2013-07-28 14:50:00,76.4,67.1,29.88,SSE,158,4.0,5.0,73,0.00,,,0.00,Wunderground v.1.15,2013-07-28 18:50:00,
2013-07-28 15:00:00,76.8,67.9,29.88,SSE,163,3.0,4.0,74,0.00,,,0.00,Wunderground v.1.15,2013-07-28 19:00:00,
2013-07-28 15:10:00,76.6,66.9,29.88,SSW,192,5.0,5.0,72,0.00,,,0.00,Wunderground v.1.15,2013-07-28 19:10:00,
2013-07-28 15:20:00,75.9,66.6,29.88,ESE,114,5.0,7.0,73,0.00,,,0.00,Wunderground v.1.15,2013-07-28 19:20:00,
2013-07-28 15:30:00,75.1,66.2,29.88,SSE,168,6.0,6.0,74,0.00,,,0.00,Wunderground v.1.15,2013-07-28 19:30:00,
2013-07-28 15:40:00,75.0,68.0,29.88,SE,124,5.0,5.0,79,0.00,,,0.00,Wunderground v.1.15,2013-07-28 19:40:00,
2013-07-28 15:50:00,75.3,67.2,29.88,SSW,195,4.0,7.0,76,0.00,,,0.00,Wunderground v.1.15,2013-07-28 19:50:00,
2013-07-28 16:00:00,75.4,67.3,29.88,ESE,120,6.0,6.0,76,0.00,,,0.00,Wunderground v.1.15,2013-07-28 20:00:00,
2013-07-28 16:10:00,75.6,67.1,29.88,South,171,5.0,6.0,75,0.00,,,0.00,Wunderground v.1.15,2013-07-28 20:10:00,
2013-07-28 16:20:00,75.3,67.2,29.88,ESE,120,6.0,6.0,76,0.00,,,0.00,Wunderground v.1.15,2013-07-28 20:20:00,
2013-07-28 16:30:00,75.1,67.0,29.88,ESE,116,5.0,7.0,76,0.00,,,0.00,Wunderground v.1.15,2013-07-28 20:30:00,
2013-07-28 16:40:00,74.8,67.5,29.88,South,190,5.0,5.0,78,0.00,,,0.00,Wunderground v.1.15,2013-07-28 20:40:00,
2013-07-28 16:50:00,74.5,67.6,29.88,South,189,4.0,6.0,79,0.00,,,0.00,Wunderground v.1.15,2013-07-28 20:50:00,
2013-07-28 17:00:00,74.4,67.8,29.88,South,179,4.0,4.0,80,0.00,,,0.00,Wunderground v.1.15,2013-07-28 21:00:00,
2013-07-28 17:10:00,74.8,68.6,29.88,SSW,212,4.0,7.0,81,0.00,,,0.00,Wunderground v.1.15,2013-07-28 21:10:00,
2013-07-28 17:20:00,75.5,68.9,29.88,SE,140,4.0,4.0,80,0.00,,,0.00,Wunderground v.1.15,2013-07-28 21:20:00,
2013-07-28 17:30:00,75.4,68.8,29.88,SSE,161,4.0,5.0,80,0.00,,,0.00,Wunderground v.1.15,2013-07-28 21:30:00,
2013-07-28 17:40:00,75.0,68.0,29.88,SE,134,4.0,4.0,79,0.00,,,0.00,Wunderground v.1.15,2013-07-28 21:40:00,
2013-07-28 17:50:00,74.8,68.2,29.88,SSE,147,3.0,3.0,80,0.00,,,0.00,Wunderground v.1.15,2013-07-28 21:50:00,
2013-07-28 18:00:00,74.8,68.2,29.88,SE,125,3.0,4.0,80,0.00,,,0.00,Wunderground v.1.15,2013-07-28 22:00:00,
2013-07-28 18:10:00,75.2,67.5,29.88,SE,135,4.0,4.0,77,0.00,,,0.00,Wunderground v.1.15,2013-07-28 22:10:00,
2013-07-28 18:20:00,75.0,66.5,29.88,South,184,3.0,4.0,75,0.00,,,0.00,Wunderground v.1.15,2013-07-28 22:20:00,
2013-07-28 18:30:00,74.6,67.3,29.88,South,185,3.0,3.0,78,0.00,,,0.00,Wunderground v.1.15,2013-07-28 22:30:00,
2013-07-28 18:40:00,74.6,68.0,29.88,SSE,149,2.0,2.0,80,0.00,,,0.00,Wunderground v.1.15,2013-07-28 22:40:00,
2013-07-28 18:50:00,74.8,68.6,29.88,South,178,2.0,3.0,81,0.00,,,0.00,Wunderground v.1.15,2013-07-28 22:50:00,
2013-07-28 19:00:00,74.8,68.6,29.88,SSE,162,3.0,3.0,81,0.00,,,0.00,Wunderground v.1.15,2013-07-28 23:00:00,
2013-07-28 19:10:00,74.4,68.9,29.89,SSW,197,3.0,3.0,83,0.00,,,0.00,Wunderground v.1.15,2013-07-28 23:10:00,
2013-07-28 19:20:00,74.2,69.1,29.89,SE,137,3.0,4.0,84,0.00,,,0.00,Wunderground v.1.15,2013-07-28 23:20:00,
2013-07-28 19:30:00,74.0,68.9,29.89,South,189,2.0,2.0,84,0.00,,,0.00,Wunderground v.1.15,2013-07-28 23:30:00,
2013-07-28 19:40:00,73.7,68.9,29.90,SSW,193,3.0,3.0,85,0.00,,,0.00,Wunderground v.1.15,2013-07-28 23:40:00,
2013-07-28 19:50:00,73.5,69.1,29.90,SSW,196,2.0,3.0,86,0.00,,,0.00,Wunderground v.1.15,2013-07-28 23:50:00,
2013-07-28 20:00:00,73.4,69.0,29.90,SSW,193,1.0,1.0,86,0.00,,,0.00,Wunderground v.1.15,2013-07-29 00:00:00,
2013-07-28 20:10:00,73.2,68.8,29.90,South,186,2.0,2.0,86,0.00,,,0.00,Wunderground v.1.15,2013-07-29 00:10:00,
2013-07-28 20:20:00,73.0,68.9,29.90,South,191,2.0,2.0,87,0.00,,,0.00,Wunderground v.1.15,2013-07-29 00:20:00,
2013-07-28 20:30:00,72.7,68.6,29.89,South,170,1.0,2.0,87,0.00,,,0.00,Wunderground v.1.15,2013-07-29 00:30:00,
2013-07-28 20:40:00,72.5,68.7,29.89,SSE,164,1.0,1.0,88,0.00,,,0.00,Wunderground v.1.15,2013-07-29 00:40:00,
2013-07-28 20:50:00,72.2,68.4,29.90,SSE,161,1.0,2.0,88,0.00,,,0.00,Wunderground v.1.15,2013-07-29 00:50:00,
2013-07-28 21:00:00,71.9,68.5,29.90,South,174,1.0,3.0,89,0.00,,,0.00,Wunderground v.1.15,2013-07-29 01:00:00,
2013-07-28 21:10:00,71.9,68.8,29.89,SE,131,3.0,3.0,90,0.00,,,0.00,Wunderground v.1.15,2013-07-29 01:10:00,
2013-07-28 21:20:00,72.3,69.2,29.89,SE,137,3.0,3.0,90,0.00,,,0.00,Wunderground v.1.15,2013-07-29 01:20:00,
2013-07-28 21:30:00,72.0,68.6,29.88,SE,137,3.0,5.0,89,0.00,,,0.00,Wunderground v.1.15,2013-07-29 01:30:00,
2013-07-28 21:40:00,71.5,68.4,29.88,SE,133,4.0,4.0,90,0.00,,,0.00,Wunderground v.1.15,2013-07-29 01:40:00,
2013-07-28 21:50:00,71.1,68.3,29.87,SSE,158,4.0,6.0,91,0.00,,,0.00,Wunderground v.1.15,2013-07-29 01:50:00,
2013-07-28 22:00:00,71.0,68.6,29.89,SSE,159,3.0,4.0,92,0.00,,,0.00,Wunderground v.1.15,2013-07-29 02:00:00,
2013-07-28 22:10:00,71.0,68.9,29.89,SSE,154,3.0,3.0,93,0.00,,,0.00,Wunderground v.1.15,2013-07-29 02:10:00,
2013-07-28 22:20:00,70.9,68.8,29.89,SSE,160,2.0,2.0,93,0.00,,,0.00,Wunderground v.1.15,2013-07-29 02:20:00,
2013-07-28 22:30:00,71.1,69.0,29.90,South,179,2.0,2.0,93,0.00,,,0.00,Wunderground v.1.15,2013-07-29 02:30:00,
2013-07-28 22:40:00,71.0,68.9,29.90,South,181,2.0,2.0,93,0.00,,,0.00,Wunderground v.1.15,2013-07-29 02:40:00,
2013-07-28 22:50:00,70.7,68.6,29.91,SSE,163,2.0,2.0,93,0.00,,,0.00,Wunderground v.1.15,2013-07-29 02:50:00,
2013-07-28 23:00:00,70.4,68.3,29.92,SSE,163,1.0,1.0,93,0.00,,,0.00,Wunderground v.1.15,2013-07-29 03:00:00,
2013-07-28 23:10:00,70.2,68.1,29.91,SSE,149,1.0,1.0,93,0.00,,,0.00,Wunderground v.1.15,2013-07-29 03:10:00,
2013-07-28 23:20:00,70.0,67.9,29.91,SSE,149,0.0,0.0,93,0.00,,,0.00,Wunderground v.1.15,2013-07-29 03:20:00,
2013-07-28 23:30:00,69.8,67.7,29.91,SSE,149,0.0,0.0,93,0.00,,,0.00,Wunderground v.1.15,2013-07-29 03:30:00,
2013-07-28 23:40:00,69.7,67.9,29.91,South,178,1.0,1.0,94,0.00,,,0.00,Wunderground v.1.15,2013-07-29 03:40:00,
2013-07-28 23:50:00,70.0,68.2,29.91,SSE,160,1.0,2.0,94,0.00,,,0.00,Wunderground v.1.15,2013-07-29 03:50:00,